Regional Weather Roundup
Issued by NWS

Home | Current Version | Previous Version | Text Only | Print | Product List | Glossary On
Versions: 1 2 3 4 5 6 7 8 9 10 11 12 13 14 15 16 17 18 19 20 21 22 23 24 25 26 27 28 29 30 31 32 33 34 35 36 37 38 39 40 41 42 43 44 45 46 47 48 49 50
000
ASUS43 KMKX 301221
RWRWI

WISCONSIN REGIONAL WEATHER ROUNDUP
NATIONAL WEATHER SERVICE MILWAUKEE/SULLIVAN WI
700 AM CDT SAT MAY 30 2015

NOTE: "FAIR" INDICATES FEW OR NO CLOUDS BELOW 12,000 FEET WITH NO
SIGNIFICANT WEATHER AND/OR OBSTRUCTIONS TO VISIBILITY.

WIZ001-002-006>008-014>016-023>028-301300-
NORTHWEST WISCONSIN

CITY           SKY/WX    TMP DP  RH WIND       PRES   REMARKS
SUPERIOR ARPT  SUNNY     45  36  69 NE5       30.23R
6HR MIN TEMP:  42; 6HR MAX TEMP:  48;

ASHLAND        CLOUDY    48  41  76 N12       30.19R
6HR MIN TEMP:  47; 6HR MAX TEMP:  52;

HAYWARD        CLOUDY    47  40  76 N13       30.18R
6HR MIN TEMP:  45; 6HR MAX TEMP:  50;

SIREN          MOSUNNY   44  37  77 N8        30.20R
6HR MIN TEMP:  43; 6HR MAX TEMP:  50;

CUMBERLAND     MOSUNNY   43  37  81 N13G18    30.16R
RICE LAKE      CLOUDY    47  40  76 N8        30.17R
6HR MIN TEMP:  47; 6HR MAX TEMP:  51;

CHETEK         CLOUDY    48  44  85 N6        30.15R
6HR MIN TEMP:  48; 6HR MAX TEMP:  51;

LADYSMITH      CLOUDY    49  45  85 N10G20    30.14R
6HR MIN TEMP:  49; 6HR MAX TEMP:  53;

EAU CLAIRE     CLOUDY    51  44  77 N9        30.11R
6HR MIN TEMP:  51; 6HR MAX TEMP:  57;

MENOMONIE      CLOUDY    51  45  80 N7        30.13R
6HR MIN TEMP:  50; 6HR MAX TEMP:  53;

NEW RICHMOND   PTSUNNY   46  40  81 N14       30.17R
6HR MIN TEMP:  46; 6HR MAX TEMP:  52;

OSCEOLA        MOSUNNY   45  42  90 N9        30.21R
6HR MIN TEMP:  44; 6HR MAX TEMP:  52;

$$

WIZ003>005-009-010-017-018-301300-
NORTH CENTRAL WISCONSIN

CITY           SKY/WX    TMP DP  RH WIND       PRES   REMARKS
MANITOWISH WTR CLOUDY    46  46 100 N9        30.13R FOG
6HR MIN TEMP:  46; 6HR MAX TEMP:  49;

ARBOR VITAE    CLOUDY    49  48  94 N10       30.11R
6HR MIN TEMP:  49; 6HR MAX TEMP:  54;

WOODRUFF       CLOUDY    49  48  94 N10       30.11R
6HR MIN TEMP:  49; 6HR MAX TEMP:  54;

RHINELANDER    CLOUDY    50  47  89 VRB7      30.09R
6HR MIN TEMP:  50; 6HR MAX TEMP:  55; 6HR PCP:  0.03;

EAGLE RIVER    DRIZZLE   49  48  98 NE12      30.10R
6HR MIN TEMP:  48; 6HR MAX TEMP:  54; 6HR PCP:  0.01;

LAND O LAKES   DRIZZLE   48  46  93 NE9       30.12R
6HR MIN TEMP:  48; 6HR MAX TEMP:  54; 6HR PCP:  0.06;

PHILLIPS       CLOUDY    47  44  91 N12G17    30.12R
6HR MIN TEMP:  47; 6HR MAX TEMP:  51;

TOMAHAWK       CLOUDY    48  47  95 N5        30.10R
6HR MIN TEMP:  48; 6HR MAX TEMP:  55;

MEDFORD        CLOUDY    49  48  96 N10       30.08R
6HR MIN TEMP:  48; 6HR MAX TEMP:  56; 6HR PCP:  0.01;

MERRILL        CLOUDY    52  51  97 N7        30.08R
$$

WIZ029-030-035-036-043>047-301300-
CENTRAL WISCONSIN

CITY           SKY/WX    TMP DP  RH WIND       PRES   REMARKS
WAUSAU         CLOUDY    54  49  83 VRB5      30.06R
6HR MIN TEMP:  53; 6HR MAX TEMP:  58; 6HR PCP:  0.03;

MOSINEE        LGT RAIN  54  52  94 NE14      30.07R
MARSHFIELD     LGT RAIN  54  49  83 NE12      30.06R
6HR MIN TEMP:  54; 6HR MAX TEMP:  61; 6HR PCP:  0.01;

STEVENS POINT  LGT RAIN  51  49  90 NE13      30.06R
6HR MIN TEMP:  51; 6HR MAX TEMP:  60; 6HR PCP:  0.16;

WAUPACA        HVY RAIN  54  53  96 NE8       30.06R
6HR MIN TEMP:  54; 6HR MAX TEMP:  66; 6HR PCP:  0.12;

WAUTOMA        HVY RAIN  54  54 100 NE14      30.04R FOG
6HR MIN TEMP:  54; 6HR MAX TEMP:  65; 6HR PCP:  0.63;

WISC RAPIDS    CLOUDY    57  51  80 NE9       30.06R
6HR MIN TEMP:  57; 6HR MAX TEMP:  62; 6HR PCP:  0.56;

CAMP DOUGLAS   RAIN      57  57 100 N9        30.02R FOG
6HR MIN TEMP:  57; 6HR MAX TEMP:  65; 6HR PCP:  0.42;

$$

WIZ011>013-019>022-031-037>040-048>050-301300-
NORTHEAST WISCONSIN

CITY           SKY/WX    TMP DP  RH WIND       PRES   REMARKS
ANTIGO         CLOUDY    51  48  90 N15       30.07R
SHAWANO        DRIZZLE   55  52  92 NE9       30.06R
6HR MIN TEMP:  54; 6HR MAX TEMP:  64; 6HR PCP:  0.19;

OCONTO         CLOUDY    51  51 100 NE7       30.06R
6HR MIN TEMP:  51; 6HR MAX TEMP:  63; 6HR PCP:  0.35;

STURGEON BAY   CLOUDY    50  45  81 N12       30.07R
6HR MIN TEMP:  50; 6HR MAX TEMP:  61;

GREEN BAY      RAIN      53  51  93 NE14      30.05R FOG
6HR MIN TEMP:  53; 6HR MAX TEMP:  65; 6HR PCP:  0.33;

MANITOWOC      LGT RAIN  52  49  89 NE8G23    30.04R
6HR MIN TEMP:  52; 6HR MAX TEMP:  64; 6HR PCP:  0.19;

APPLETON       LGT RAIN  52  52 100 NE16G26   30.04R FOG
CLINTONVILLE   LGT RAIN  52  52 100 NE5       30.05R
OSHKOSH        LGT RAIN  56  53  90 NE24G32   30.01R FOG
6HR MIN TEMP:  56; 6HR MAX TEMP:  65; 6HR PCP:  0.27;

$$

WIZ032>034-041-042-053>061-301300-
SOUTHWEST WISCONSIN

CITY           SKY/WX    TMP DP  RH WIND       PRES   REMARKS
LA CROSSE      CLOUDY    56  52  86 N12G21    30.05R
6HR MIN TEMP:  56; 6HR MAX TEMP:  66; 6HR PCP:  0.77;

SPARTA         DRIZZLE   54  52  94 N10       30.05R
6HR MIN TEMP:  54; 6HR MAX TEMP:  64; 6HR PCP:  0.22;

VIROQUA        CLOUDY    55  55 100 N16       30.02R
6HR MIN TEMP:  55; 6HR MAX TEMP:  64; 6HR PCP:  0.34;

BOSCOBEL       CLOUDY    62  58  86 N9        29.98R
6HR MIN TEMP:  62; 6HR MAX TEMP:  67; 6HR PCP:  0.01;

PRAIRIE DU CHI CLOUDY    61  55  82 N12G22    29.99R
6HR MIN TEMP:  61; 6HR MAX TEMP:  67; 6HR PCP:  0.03;

PLATTEVILLE    CLOUDY    65  64  96 W5        29.95S
6HR MIN TEMP:  64; 6HR MAX TEMP:  69; 6HR PCP:  0.37;

$$

WIZ056-057-062-063-064-067-068-301300-
SOUTH CENTRAL WISCONSIN

CITY           SKY/WX    TMP DP  RH WIND       PRES   REMARKS
REEDSBURG      LGT RAIN  59  58  97 N8        29.98R
6HR MIN TEMP:  59; 6HR MAX TEMP:  64; 6HR PCP:  0.23;

BARABOO/DELLS  LGT RAIN  58  56  94 N10G17    29.98R
6HR MIN TEMP:  58; 6HR MAX TEMP:  64; 6HR PCP:  0.23;

LONE ROCK      CLOUDY    63  59  87 N17G29    29.95R
6HR MIN TEMP:  63; 6HR MAX TEMP:  67; 6HR PCP:  0.18;

MINERAL POINT  CLOUDY    64  63  94 SW5       29.95R
MADISON        CLOUDY    67  63  87 SW5       29.94R
6HR MIN TEMP:  65; 6HR MAX TEMP:  67; 6HR PCP: TRACE;

MIDDLETON      CLOUDY    67  65  95 SW3       29.95R
6HR MIN TEMP:  66; 6HR MAX TEMP:  68;

WATERTOWN      DRIZZLE  N/A N/A N/A S3        29.94R
MONROE         CLOUDY    64  61  88 SW6       29.96R
JANESVILLE     CLOUDY    66  64  94 SW6       29.95R
$$

WIZ051-052-058>065-066-070>072-301300-
SOUTHEAST WISCONSIN

CITY           SKY/WX    TMP DP  RH WIND       PRES   REMARKS
MILWAUKEE      LGT RAIN  51  49  92 N17G25    30.00R FOG
6HR MIN TEMP:  51; 6HR MAX TEMP:  71; 6HR PCP:  0.13;

WAUKESHA       RAIN      54  54 100 NE16G25   30.00R
MILWAUKEE/TIMM LGT RAIN  52  50  93 NE12G18   30.01R
RACINE         LGT RAIN  55  53  93 N16       30.01R
6HR MIN TEMP:  57; 6HR MAX TEMP:  71; 6HR PCP:  0.08;

BURLINGTON     RAIN      64  63  98 CALM      29.97R
6HR MIN TEMP:  63; 6HR MAX TEMP:  67; 6HR PCP:  0.02;

KENOSHA        LGT RAIN  67  64  90 SW3       29.98R
6HR MIN TEMP:  66; 6HR MAX TEMP:  70; 6HR PCP:  0.01;

FOND DU LAC    LGT RAIN  57  55  93 NE20      30.01R FOG
6HR MIN TEMP:  57; 6HR MAX TEMP:  65; 6HR PCP:  0.40;

SHEBOYGAN      CLOUDY    52  49  89 NE22G32   30.01R
6HR MIN TEMP:  52; 6HR MAX TEMP:  64; 6HR PCP:  0.35;

WEST BEND      LGT RAIN  54  52  94 NE12G20   30.00R
JUNEAU         LGT RAIN  64  63  96 E7        29.96R
6HR MIN TEMP:  63; 6HR MAX TEMP:  64; 6HR PCP:  0.08;

$$

LSZ147-162-301300-
LAKE SUPERIOR

STATION/POSITION TIME  TEMP    WIND        PRES    WAVE
                       AIR SEA DIR/SP/G            HT/PER
                 (UTC) (F)     (DEG/KT/KT) (MB)    (FT/S)
W MID LAKE BUOY  1150   40 37   20/ 10/ 10   N/A     1/ 4
DEVILS ISLAND    1200   44      20/ 13/ 15   N/A
PORT WING        1100   46     330/  5/  6   N/A
$$

LMZ867-665-643>646-301300-
LAKE MICHIGAN

STATION/POSITION TIME  TEMP    WIND        PRES    WAVE
                       AIR SEA DIR/SP/G            HT/PER
                 (UTC) (F)     (DEG/KT/KT) (MB)    (FT/S)
CHAMBERS ISLAND  1100   52     350/ 11/ 15   N/A
N MID LAKE BUOY  1150   41 37  330/  8/ 10   N/A     1/ 3


USA.gov is the U.S. government's official web portal to all federal, state and local government web resources and services.